User: anonymous   Login
Location: Newark
(44.2886°N, 4.8431°E)
Time: 04:57:55
(UTC+00:00)
Language:

ZACube-1 - Orbit

View from above orbital plane
View from above orbital plane
View from above satellite
View from above satellite

Ground track
Ground track

The orbit data is extracted from the following two-line orbital elements,

1 39417U 13066B   20330.53735172  .00000436  00000-0  60486-4 0  9992
2 39417  97.5756 319.6892 0060177 109.2139 251.5599 14.81361655378889
Epoch (UTC): 25 November 2020 12:53:47
Eccentricity: 0.0060177
inclination: 97.5756°
perigee height: 583 km
apogee height: 667 km
right ascension of ascending node: 319.6892°
argument of perigee: 109.2139°
revolutions per day: 14.81361655
mean anomaly at epoch: 251.5599°
orbit number at epoch: 37888

The dashed part of the orbit path shows where the satellite is in the earth's shadow,  

DLR